Погода Сытомино

Погода Сытомино : погода сейчас, прогноз погоды и архив. Всё, что Вы хотите узнать о погоде Сытомино!

Поиск расширенной информации на нашем сайте:

Другие новости

Новости СМИ2

Главная страница сайта

Новости сайта

03.07.2017

Напоминаем, что на нашем специализированном сайте Метеоцентр.Азия вы можете получить высокодетализированные автоматические прогнозы погоды по пунктам России, СНГ и мира в авиационном формате (включающие направление и скорость ветра, видимость, явления погоды, количество и форму облачности, нижнюю и верхнюю границу облачности).

Рекомендуем: художник

Погода Сытомино - сегодня

Время (UTC), дата Ветер
(°,м/с) 
Видим.   Явления Облачность Т
(°С)
Тd
(°С)
f(%) Тe
(°С)
Pmin
(гПа)
dP
(гПа)
Po
(мм)
O2
(г/м3)
Тmin Tmax R s Состояние
почвы
00 14.08.18 160 (Ю) 10 км    4/3 600 м средняя, верхняя 
[Sc|Ac lent|Ci fib]
+16.1 +14.5 90 +25  1006.1  -0.9  752  283           
03 14.08.18 180 (Ю) 10 км    8/5 600 м верхняя 
[Sc|Ci fib]
+18.6 +16.4 87 +30  1006.2  0.1  752  280  +14.5        сухая 
06 14.08.18 190 (Ю) 5{10}  10 км    10/0 верхняя 
[Ci fib]
+24 +16.2 62 +35  1006.2  0.1  752  275           
12 14.08.18 200 (Ю) 3{10}  10 км    10/0 средняя, верхняя 
[Ac lent|Cs]
+25.9 +14.8 50 +34  1006.3  752  274           
18 14.08.18 250 (З) 10 км    10/0 средняя, верхняя 
[Ac lent|Ci fib]
+19.8 +15.2 75 +30  1007.3  0.6  753  280           
21 14.08.18 230 (ЮЗ) 10 км    10/0 средняя 
[Ac lent]
+17.2 +15 87 +28  1008  0.7  753  282           
00 15.08.18 140 (ЮВ) 10 км    10/5 600 м средняя, верхняя 
[Sc|Ac lent|Ci fib]
+17.5 +15.2 86 +28  1007.6  -0.5  753  282           
03 15.08.18 150 (ЮВ) 10 км    10/8 600 м кучево-дожд., средняя 
[Cb cap|Ac lent]
+18.2 +15.9 86 +29  1007.4  -0.1  753  281  +17        сухая 
06 15.08.18 090 (В) 10 км  слаб. ливневой дождь  10/8 600 м кучево-дожд., средняя 
[Cb cap|Ac lent]
+18.4 +17.2 93 +33  1006.6  -0.8  752  280           
09 15.08.18 180 (Ю) 10 км  {ливн. осадки}  10/5 600 м кучево-дожд., средняя, верхняя 
[Cb cap|Ac lent|Ci sp]
+21.1 +17.8 81 +35  1006.7  -0.1  752  277           
15 15.08.18 270 (З) 2{11}  10 км    9/9 600 м кучево-дожд. 
[Cb cap]
+18.2 +16.2 88 +30  1007.3  0.9  753  281    +22.1     
18 15.08.18 320 (СЗ) 10 км  гроза, ливневой дождь  10/10 300 м кучево-дожд. 
[Cb cap]
+14.6 +14 96 +23  1007.9  0.6  753  285           
21 15.08.18 340 (С) 10 км  {гроза, ливн. осадки}  10/10 600 м кучево-дожд. 
[Cb cap]
+14.1 +13.5 96 +21  1008.2  0.3  753  286           
00 16.08.18 340 (С) 10 км  гроза, ливневой дождь  10/10 600 м кучево-дожд. 
[Cb cap]
+13.8 +13.2 96 +20  1008.6  0.4  754  286           
03 16.08.18 340 (С) 10 км  в посл. час ливневой дождь{гроза}  9/9 600 м кучево-дожд. 
[Cb cap]
+14.2 +13.4 95 +21  1009.4  0.8  754  286  +13.7    19    влажная 
06 16.08.18 360 (С) 10 км  {гроза, ливн. осадки}  10/4 600 м средняя, верхняя 
[Cu med, cong|Ac trans|Ci fib]
+16.8 +11.5 71 +21  1009.8  0.4  754  284           
09 16.08.18 010 (С) 10 км    6/4 600 м верхняя 
[Cu med, cong|Ci fib]
+19.6 +10 54 +21  1009.9  0.1  755  282           
12 16.08.18 250 (З) 10 км    8/4 600 м верхняя 
[Cu hum|Ci fib]
+20.7 +11.3 55 +23  1010.1  0.2  755  281           
18 16.08.18 тихо ()   10 км    10/8 600 м средняя 
[Sc|Ac lent]
+13.7 +12.5 92 +18  1009.9  755  287           
21 16.08.18 тихо ()   10 км    10/8 600 м средняя 
[Sc|Ac lent]
+13.4 +12.6 95 +18  1009.3  -0.6  754  287           
00 17.08.18 050 (СВ) 4000 м  дымка  10/5 600 м средняя, верхняя 
[Sc|Ac lent|Ci sp]
+10.8 +10.2 96 +13  1009.2  -0.6  754  290           
03 17.08.18 080 (В) 10 км    10/5 600 м кучево-дожд., средняя, верхняя 
[Cb cap|Ac lent|Ci sp]
+15.4 +13.5 88 +23  1009.2  0.1  754  285  +10.8        влажная 
06 17.08.18 160 (Ю) 10 км    9/9 600 м 
[Sc]
+18.4 +13.1 71 +24  1008.8  -0.4  754  282           
09 17.08.18 120 (ЮВ) 10 км    10/10 600 м кучево-дожд. 
[Cb cap]
+18.5 +12.8 69 +24  1008.3  -0.5  753  282           
12 17.08.18 360 (С) 10 км  слаб. ливневой дождь  10/10 300 м кучево-дожд. 
[Cb cap]
+16.1 +14.8 92 +25  1008.1  -0.2  753  283           
Время (UTC), дата Ветер
(°,м/с) 
Видим.   Явления Облачность Т
(°С)
Тd
(°С)
f(%) Тe
(°С)
Pmin
(гПа)
dP
(гПа)
Po
(мм)
O2
(г/м3)
Тmin Tmax R s Состояние
почвы

Для получения пояснительной информации подведите курсор к названию столбца.

ПОГОДА Сытомино - архив

Всё, что Вы хотите узнать о погоде Сытомино - удобно и подробно!

Выберите нужную дату (начиная с 1 января 2015* года) и нажмите кнопку "Найти".
Будут отображены архивные сводки погоды по пункту Сытомино, начиная с указанной даты.


Отображать данные в формате CSV (для использования в таблицах Excel)


Внимание! Наш архив погоды предназначен исключительно для личного некоммерческого использования в познавательных целях. Если Вам необходимы официальные справки о состоянии погоды (для производственных, юридических, коммерческих и т.п. целей), обращайтесь в органы Росгидромета.

*Примечание: данная дата относится к архиву по метеостанциям СССР (Россия, СНГ, Балтия).
Архив по метеостанциям Зарубежной Европы и Азии (кроме Китая) хранится 10 дней, по другим регионам земного шара (Китай, Африка, Америка, Австралия, Океания) - 1 день.

Сытомино - район местоположения метеостанции


Название, широта, долгота, высота метеостанции:
Сытомино 61.3°ш. 71.3°д. 33 м над ур. моря [Российская Федерация]

Дополнительная информация

В oтличие oт бoльшинства пoгoдных сайтoв мы публикуем пoдрoбную метеoинфoрмацию в детальнoм прoфессиoнальнoм фoрмате.

Характеристики температуры и влажнoсти вoздуха измеряются на высoте 2 м в тени вдали oт зданий и деревьев.
Скoрoсть ветра измеряется на высoте 10 м (на урoвне рoста челoвека скoрoсть ветра ниже в 1.5-2 раза). Если метеoстанция нахoдится в гoрoде или в лесу, тo скoрoсть ветра занижена на 2-4 м/с пo сравнению с oткрытым местoм. Скoрoсть ветра над акватoриями крупных рек и oзёр, а также на вершинах хoлмoв на 2-5 м/с выше, чем в oбычных услoвиях.
Атмoсфернoе давление в разных тoчках местнoсти мoжет значительнo oтличаться oт давления на метеoстанции, в зависимoсти oт услoвий рельефа (при пoдъёме на 10 м давление пoнижается примернo на 1 мм рт.ст.).